New York, NY

6:26 AM EDT on April 28, 2017 (GMT -0400)
La Guardia

Weather History for KLGA - March, 2013

Change the Weather History Date:

Wednesday, March 6, 2013

  Actual Average Record
Temperature  
Mean Temperature 41 °F 39 °F  
Max Temperature 43 °F 47 °F 64 °F (1976)
Min Temperature 38 °F 32 °F 14 °F (2007)
Degree Days  
Heating Degree Days 24 26  
Month to date heating degree days 161 158  
Since 1 July heating degree days 3356 3587  
Cooling Degree Days 0 0  
Month to date cooling degree days 0 0  
Year to date cooling degree days 0 0  
Moisture  
Dew Point 30 °F    
Average Humidity 66    
Maximum Humidity 76    
Minimum Humidity 55    
Precipitation  
Precipitation T in 0.12 in 2.47 in (1979)
Month to date precipitation T 0.70  
Year to date precipitation 5.84 6.63  
Snow  
Snow T in 0.20 in 4.40 in (1990)
Month to date snowfall 0.1 1.3  
Since 1 July snowfall 16.2 23.3  
Snow Depth 0.00 in    
Sea Level Pressure  
Sea Level Pressure 29.91 in    
Wind  
Wind Speed 23 mph (ENE)    
Max Wind Speed 39 mph    
Max Gust Speed 49 mph    
Visibility 10 miles    
Events Rain , Snow    
T = Trace of Precipitation, MM = Missing Value Source: NWS Daily Summary

Daily Weather History Graph

Daily Weather History Graph

Search for Another Location

Airport or City:

Trip Planner

Search our weather history database for the weather conditions in past years. The results will help you decide how hot, cold, wet, or windy it might be!

Date:

Astronomy

Mar. 06, 2013 Rise Set
Actual Time 6:21 AM EST 5:52 PM EST
Civil Twilight 5:53 AM EST 6:19 PM EST
Nautical Twilight 5:22 AM EST 6:51 PM EST
Astronomical Twilight 4:50 AM EST 7:23 PM EST
Moon 2:29 AM EST (3/6) 12:30 PM EST (3/6)
Length of Visible Light 12h 26m
Length of Day
11h 31m
Waning Crescent, 30% of the Moon is Illuminated
Mar 6
Waning Crescent
Mar 11
New
Mar 19
First Quarter
Mar 27
Full
Apr 3
Last Quarter

Hourly Weather History & Observations

Time (EST) Temp. Windchill Dew Point Humidity Pressure Visibility Wind Dir Wind Speed Gust Speed Precip Events Conditions
12:51 AM 41.0 °F 35.8 °F 28.9 °F 62% 29.97 in 10.0 mi ESE 8.1 mph - N/A   Overcast
1:51 AM 39.0 °F 34.0 °F 30.0 °F 70% 29.97 in 10.0 mi ENE 6.9 mph - N/A   Overcast
2:51 AM 39.0 °F 32.8 °F 30.0 °F 70% 29.94 in 10.0 mi ENE 9.2 mph - N/A   Overcast
3:51 AM 37.9 °F 28.9 °F 28.9 °F 70% 29.92 in 10.0 mi East 16.1 mph 21.9 mph N/A   Overcast
4:51 AM 39.0 °F 30.3 °F 30.0 °F 70% 29.93 in 10.0 mi East 16.1 mph 25.3 mph N/A   Overcast
5:51 AM 39.0 °F 29.3 °F 28.9 °F 67% 29.91 in 10.0 mi ENE 19.6 mph - N/A   Overcast
6:17 AM 39.2 °F 29.8 °F 30.2 °F 70% 29.91 in 10.0 mi ENE 18.4 mph 24.2 mph N/A   Overcast
6:51 AM 39.0 °F 28.8 °F 32.0 °F 76% 29.91 in 10.0 mi ENE 21.9 mph 28.8 mph N/A   Overcast
7:51 AM 39.0 °F 28.5 °F 32.0 °F 76% 29.91 in 10.0 mi ENE 23.0 mph 29.9 mph N/A   Overcast
8:08 AM 39.2 °F 28.7 °F 32.0 °F 75% 29.91 in 10.0 mi ENE 23.0 mph 31.1 mph N/A   Overcast
8:43 AM 39.2 °F 28.7 °F 32.0 °F 75% 29.92 in 10.0 mi ENE 23.0 mph 29.9 mph N/A   Overcast
8:51 AM 39.9 °F 28.8 °F 30.9 °F 70% 29.92 in 10.0 mi ENE 27.6 mph 33.4 mph N/A   Overcast
9:51 AM 39.9 °F 28.6 °F 32.0 °F 73% 29.91 in 10.0 mi ENE 28.8 mph 36.8 mph N/A   Overcast
10:51 AM 41.0 °F 30.0 °F 32.0 °F 70% 29.89 in 10.0 mi ENE 28.8 mph 35.7 mph N/A   Overcast
11:51 AM 41.0 °F 29.0 °F 34.0 °F 76% 29.87 in 10.0 mi ENE 35.7 mph 47.2 mph 0.00 in Rain Light Rain
12:51 PM 42.1 °F 30.6 °F 30.0 °F 62% 29.87 in 10.0 mi ENE 34.5 mph 46.0 mph 0.00 in   Overcast
1:15 PM 42.8 °F 32.5 °F 28.4 °F 57% 29.87 in 10.0 mi ENE 28.8 mph 46.0 mph N/A   Overcast
1:51 PM 42.1 °F 31.1 °F 28.0 °F 58% 29.87 in 10.0 mi ENE 31.1 mph 44.9 mph N/A   Overcast
2:51 PM 41.0 °F 29.5 °F 30.0 °F 65% 29.86 in 10.0 mi ENE 32.2 mph 41.4 mph N/A   Overcast
3:51 PM 39.9 °F 29.2 °F 30.0 °F 68% 29.86 in 10.0 mi NE 25.3 mph 32.2 mph 0.00 in   Overcast
4:51 PM 41.0 °F 32.5 °F 28.9 °F 62% 29.87 in 10.0 mi NE 17.3 mph 28.8 mph 0.00 in   Overcast
5:51 PM 41.0 °F 30.9 °F 28.9 °F 62% 29.88 in 10.0 mi NNE 24.2 mph 36.8 mph N/A   Overcast
6:51 PM 41.0 °F 30.5 °F 28.0 °F 60% 29.91 in 10.0 mi NE 26.5 mph 40.3 mph 0.00 in Rain Light Rain
7:51 PM 39.9 °F 29.2 °F 27.0 °F 60% 29.92 in 10.0 mi NNE 25.3 mph 42.6 mph 0.00 in Rain Light Rain
8:51 PM 39.0 °F 28.5 °F 27.0 °F 62% 29.93 in 10.0 mi NNE 23.0 mph 36.8 mph 0.00 in   Overcast
9:51 PM 39.0 °F 27.6 °F 26.1 °F 60% 29.93 in 10.0 mi NE 27.6 mph 38.0 mph N/A   Overcast
10:51 PM 37.9 °F 27.6 °F 28.0 °F 68% 29.93 in 10.0 mi NNE 20.7 mph 35.7 mph 0.00 in Rain , Snow Light Snow
11:51 PM 37.9 °F 27.6 °F 27.0 °F 65% 29.92 in 10.0 mi NNE 20.7 mph 29.9 mph 0.00 in Rain Light Rain